Weather History for KMLS - June, 2014

Change the Weather History Date:

Monday, June 23, 2014

  Actual Average Record
Temperature  
Mean Temperature 66 °F 68 °F  
Max Temperature 80 °F 82 °F 104 °F (1988)
Min Temperature 52 °F 55 °F 43 °F (1942)
Degree Days  
Heating Degree Days 0 2  
Month to date heating degree days 92 80  
Since 1 June heating degree days 92 80  
Since 1 July heating degree days 8099 7629  
Cooling Degree Days 1 5  
Month to date cooling degree days 15 68  
Year to date cooling degree days 49 88  
Since 1 June cooling degree days 15 68  
Growing Degree Days 16 (Base 50)    
Moisture  
Dew Point 45 °F    
Average Humidity 55    
Maximum Humidity 89    
Minimum Humidity 21    
Precipitation  
Precipitation 0.00 in 0.08 in 0.48 in (1942)
Month to date precipitation 1.63 2.05  
Year to date precipitation 7.02 6.75  
Sea Level Pressure  
Sea Level Pressure 30.01 in    
Wind  
Wind Speed 7 mph (NW)    
Max Wind Speed 17 mph    
Max Gust Speed 25 mph    
Visibility 10 miles    
Events      
T = Trace of Precipitation, MM = Missing Value Source: NWS Daily Summary

Daily Weather History Graph

Daily Weather History Graph

Search for Another Location

Airport or City:

Trip Planner

Search our weather history database for the weather conditions in past years. The results will help you decide how hot, cold, wet, or windy it might be!

Date:

Astronomy

Jun. 23, 2014 Rise Set
Actual Time 5:11 AM MDT 9:00 PM MDT
Civil Twilight 4:32 AM MDT 9:39 PM MDT
Nautical Twilight 3:39 AM MDT 10:32 PM MDT
Astronomical Twilight 2:22 AM MDT 11:48 PM MDT
Moon 2:49 AM MDT (6/23) 5:35 PM MDT (6/23)
Length of Visible Light 17h 06m
Length of Day
15h 48m
Waning Crescent, 12% of the Moon is Illuminated
Jun 23
Waning Crescent
Jun 27
New
Jul 5
First Quarter
Jul 12
Full
Jul 18
Last Quarter

Hourly Weather History & Observations

Time (MDT) Temp. Dew Point Humidity Pressure Visibility Wind Dir Wind Speed Gust Speed Precip Events Conditions
12:53 AM 59.0 °F 46.9 °F 64% 29.99 in 10.0 mi WNW 5.8 mph - N/A   Scattered Clouds
1:53 AM 57.0 °F 48.0 °F 72% 30.00 in 10.0 mi WNW 4.6 mph - N/A   Clear
2:53 AM 57.0 °F 48.0 °F 72% 29.99 in 10.0 mi WNW 6.9 mph - N/A   Clear
3:53 AM 55.0 °F 50.0 °F 83% 30.01 in 10.0 mi WSW 3.5 mph - N/A   Clear
4:53 AM 53.1 °F 48.9 °F 86% 30.01 in 10.0 mi WNW 5.8 mph - N/A   Partly Cloudy
5:53 AM 52.0 °F 48.0 °F 86% 30.02 in 10.0 mi WNW 5.8 mph - N/A   Clear
6:53 AM 57.9 °F 48.0 °F 70% 30.03 in 10.0 mi West 6.9 mph - N/A   Scattered Clouds
7:53 AM 64.0 °F 48.0 °F 56% 30.03 in 10.0 mi West 6.9 mph - N/A   Clear
8:53 AM 68.0 °F 48.0 °F 49% 30.04 in 10.0 mi Variable 3.5 mph - N/A   Clear
9:53 AM 72.0 °F 46.0 °F 40% 30.04 in 10.0 mi WNW 6.9 mph - N/A   Clear
10:53 AM 73.9 °F 45.0 °F 35% 30.04 in 10.0 mi NW 9.2 mph - N/A   Clear
11:53 AM 75.9 °F 45.0 °F 33% 30.04 in 10.0 mi NNW 11.5 mph 19.6 mph N/A   Scattered Clouds
12:53 PM 75.9 °F 41.0 °F 29% 30.03 in 10.0 mi North 9.2 mph - N/A   Mostly Cloudy
1:53 PM 78.1 °F 39.9 °F 25% 30.01 in 10.0 mi NW 11.5 mph 20.7 mph N/A   Partly Cloudy
3:19 PM 79.0 °F 36.0 °F 21% 30.03 in 10.0 mi NW 13.8 mph 20.7 mph N/A   Partly Cloudy
4:53 PM 80.1 °F 37.0 °F 21% 29.98 in 10.0 mi West 9.2 mph - N/A   Clear
5:53 PM 79.0 °F 35.1 °F 20% 29.97 in 10.0 mi NW 12.7 mph 21.9 mph N/A   Clear
6:53 PM 78.1 °F 35.1 °F 21% 29.97 in 10.0 mi NNW 10.4 mph - N/A   Clear
7:53 PM 75.0 °F 39.9 °F 28% 29.97 in 10.0 mi North 5.8 mph - N/A   Clear
8:53 PM 72.0 °F 41.0 °F 33% 29.98 in 10.0 mi Calm Calm - N/A   Clear
9:53 PM 64.0 °F 51.1 °F 63% 30.01 in 10.0 mi NE 9.2 mph - N/A   Clear
10:53 PM 62.1 °F 52.0 °F 70% 30.02 in 10.0 mi North 6.9 mph - N/A   Clear
11:53 PM 61.0 °F 51.1 °F 70% 30.01 in 10.0 mi Calm Calm - N/A   Clear